New Bedford, MA

7:41 AM EDT on May 29, 2017 (GMT -0400)
New Bedford Regional

Weather History for KEWB - November, 2011

Change the Weather History Date:

Friday, November 11, 2011

  Actual Average Record
Temperature  
Mean Temperature 49 °F -  
Max Temperature 57 °F 54 °F 71 °F (1966)
Min Temperature 41 °F 40 °F 23 °F (1956)
Degree Days  
Heating Degree Days 16    
Moisture  
Dew Point 39 °F    
Average Humidity 71    
Maximum Humidity 94    
Minimum Humidity 44    
Precipitation  
Precipitation 0.01 in - - ()
Sea Level Pressure  
Sea Level Pressure 29.56 in    
Wind  
Wind Speed 9 mph (WNW)    
Max Wind Speed 22 mph    
Max Gust Speed 32 mph    
Visibility 10 miles    
Events Rain    
Averages and records for this station are not official NWS values.
T = Trace of Precipitation, MM = Missing Value Source: NWS Daily Summary

Daily Weather History Graph

Daily Weather History Graph

Search for Another Location

Airport or City:

Trip Planner

Search our weather history database for the weather conditions in past years. The results will help you decide how hot, cold, wet, or windy it might be!

Date:

Astronomy

Nov. 11, 2011 Rise Set
Actual Time 6:27 AM EST 4:27 PM EST
Civil Twilight 5:58 AM EST 4:56 PM EST
Nautical Twilight 5:24 AM EST 5:30 PM EST
Astronomical Twilight 4:52 AM EST 6:02 PM EST
Moon 4:52 PM EST (11/11) 7:14 AM EST (11/11)
Length of Visible Light 10h 58m
Length of Day
9h 59m
Full, 99% of the Moon is Illuminated
Nov 11
Full
Nov 18
Last Quarter
Nov 25
New
Dec 2
First Quarter
Dec 10
Full

Hourly Weather History & Observations

Time (EST) Temp. Windchill Dew Point Humidity Pressure Visibility Wind Dir Wind Speed Gust Speed Precip Events Conditions
12:02 AM 57.2 °F - 55.4 °F 94% 29.49 in 10.0 mi Variable 3.5 mph - N/A   Overcast
12:53 AM 57.9 °F - 55.9 °F 93% 29.47 in 10.0 mi NW 4.6 mph - 0.00 in Rain Light Rain
1:02 AM 57.2 °F - 55.4 °F 94% 29.47 in 10.0 mi NW 4.6 mph - 0.00 in   Overcast
1:15 AM 57.2 °F - 53.6 °F 88% 29.47 in 10.0 mi NW 5.8 mph - 0.01 in Rain Light Rain
1:26 AM 57.2 °F - 53.6 °F 88% 29.46 in 10.0 mi NW 6.9 mph - 0.01 in   Overcast
1:53 AM 55.9 °F - 52.0 °F 87% 29.47 in 10.0 mi NW 8.1 mph - 0.01 in   Overcast
2:36 AM 53.6 °F - 48.2 °F 82% 29.46 in 10.0 mi Variable 6.9 mph - N/A   Overcast
2:53 AM 52.0 °F - 48.0 °F 86% 29.45 in 10.0 mi Variable 4.6 mph - N/A   Overcast
3:08 AM 51.8 °F - 48.2 °F 88% 29.45 in 10.0 mi Variable 5.8 mph - N/A   Overcast
3:25 AM 50.0 °F - 46.4 °F 87% 29.45 in 10.0 mi Variable 6.9 mph 16.1 mph N/A   Scattered Clouds
3:53 AM 48.9 °F - 44.1 °F 83% 29.45 in 10.0 mi Variable 5.8 mph - N/A   Clear
4:53 AM 48.0 °F - 43.0 °F 83% 29.42 in 10.0 mi Variable 3.5 mph - N/A   Scattered Clouds
5:53 AM 46.9 °F - 43.0 °F 86% 29.42 in 10.0 mi WNW 8.1 mph - N/A   Partly Cloudy
6:53 AM 46.4 °F 40.7 °F 42.8 °F 87% 29.45 in 10.0 mi WNW 12.7 mph - N/A   Mostly Cloudy
7:53 AM 46.9 °F - 39.9 °F 77% 29.47 in 10.0 mi WNW 10.4 mph - N/A   Overcast
8:53 AM 45.0 °F 38.2 °F 37.0 °F 74% 29.47 in 10.0 mi WNW 15.0 mph 23.0 mph N/A   Overcast
9:53 AM 48.2 °F - 35.6 °F 62% 29.49 in 10.0 mi WNW 16.1 mph 24.2 mph N/A   Overcast
10:53 AM 48.2 °F - 33.8 °F 58% 29.48 in 10.0 mi WNW 13.8 mph 25.3 mph N/A   Mostly Cloudy
11:53 AM 52.0 °F - 32.0 °F 47% 29.48 in 10.0 mi West 18.4 mph 26.5 mph N/A   Mostly Cloudy
12:53 PM 48.9 °F - 30.0 °F 48% 29.51 in 10.0 mi WNW 19.6 mph 27.6 mph N/A   Mostly Cloudy
1:53 PM 48.0 °F - 30.0 °F 50% 29.54 in 10.0 mi West 21.9 mph 28.8 mph N/A   Mostly Cloudy
2:53 PM 48.0 °F - 27.0 °F 44% 29.57 in 10.0 mi West 19.6 mph 32.2 mph N/A   Clear
3:53 PM 46.9 °F - 27.0 °F 46% 29.62 in 10.0 mi West 13.8 mph 25.3 mph N/A   Mostly Cloudy
4:53 PM 45.0 °F 38.9 °F 24.1 °F 44% 29.65 in 10.0 mi West 12.7 mph 21.9 mph N/A   Scattered Clouds
5:53 PM 43.0 °F 35.4 °F 28.0 °F 56% 29.70 in 10.0 mi West 16.1 mph 26.5 mph N/A   Clear
6:53 PM 43.0 °F 35.7 °F 30.0 °F 60% 29.73 in 10.0 mi WNW 15.0 mph 27.6 mph N/A   Clear
7:53 PM 42.1 °F 34.9 °F 28.0 °F 58% 29.77 in 10.0 mi West 13.8 mph 21.9 mph N/A   Clear
8:53 PM 42.1 °F 34.5 °F 28.0 °F 58% 29.80 in 10.0 mi West 15.0 mph 26.5 mph N/A   Clear
9:53 PM 42.1 °F 33.9 °F 28.0 °F 58% 29.83 in 10.0 mi West 17.3 mph 28.8 mph N/A   Clear
10:53 PM 41.0 °F 32.5 °F 28.9 °F 62% 29.86 in 10.0 mi West 17.3 mph 21.9 mph N/A   Clear
11:53 PM 41.0 °F 33.9 °F 28.0 °F 60% 29.89 in 10.0 mi West 12.7 mph 19.6 mph N/A   Clear